Weather History for KEYW - February, 2012

Change the Weather History Date:

Sunday, February 26, 2012

  Actual Average Record
Temperature  
Mean Temperature 77 °F 72 °F  
Max Temperature 81 °F 77 °F 85 °F (1991)
Min Temperature 73 °F 67 °F 49 °F (1967)
Degree Days  
Heating Degree Days 0 0  
Month to date heating degree days 5 19  
Since 1 July heating degree days 28 70  
Cooling Degree Days 12 7  
Month to date cooling degree days 230 169  
Year to date cooling degree days 438 334  
Growing Degree Days 27 (Base 50)    
Moisture  
Dew Point 70 °F    
Average Humidity 78    
Maximum Humidity 87    
Minimum Humidity 69    
Precipitation  
Precipitation 0.01 in 0.07 in 1.20 in (1877)
Month to date precipitation 5.22 1.37  
Year to date precipitation 6.00 3.41  
Snow  
Snow 0.00 in - - ()
Month to date snowfall 0.0  
Since 1 July snowfall 0.0  
Snow Depth 0.00 in    
Sea Level Pressure  
Sea Level Pressure 30.17 in    
Wind  
Wind Speed 15 mph (ENE)    
Max Wind Speed 22 mph    
Max Gust Speed 30 mph    
Visibility 10 miles    
Events Rain    
T = Trace of Precipitation, MM = Missing Value Source: NWS Daily Summary

Daily Weather History Graph

Daily Weather History Graph

Search for Another Location

Airport or City:

Trip Planner

Search our weather history database for the weather conditions in past years. The results will help you decide how hot, cold, wet, or windy it might be!

Date:

Astronomy

Feb. 26, 2012 Rise Set
Actual Time 6:52 AM EST 6:27 PM EST
Civil Twilight 6:29 AM EST 6:50 PM EST
Nautical Twilight 6:03 AM EST 7:17 PM EST
Astronomical Twilight 5:36 AM EST 7:43 PM EST
Moon 9:23 AM EST (2/26) 10:44 PM EST (2/26)
Length of Visible Light 12h 21m
Length of Day
11h 35m
Waxing Crescent, 20% of the Moon is Illuminated
Feb 26
Waxing Crescent
Feb 29
First Quarter
Mar 8
Full
Mar 14
Last Quarter
Mar 22
New

Hourly Weather History & Observations

Time (EST) Temp. Heat Index Dew Point Humidity Pressure Visibility Wind Dir Wind Speed Gust Speed Precip Events Conditions
12:53 AM 73.0 °F - 69.1 °F 87% 30.15 in 10.0 mi ENE 12.7 mph 19.6 mph N/A   Partly Cloudy
1:53 AM 73.0 °F - 69.1 °F 87% 30.15 in 10.0 mi ENE 6.9 mph - N/A   Scattered Clouds
2:53 AM 73.0 °F - 70.0 °F 90% 30.14 in 10.0 mi ENE 10.4 mph - N/A   Clear
3:53 AM 73.0 °F - 70.0 °F 90% 30.14 in 10.0 mi NE 9.2 mph - N/A   Clear
4:53 AM 73.9 °F - 70.0 °F 87% 30.14 in 10.0 mi NE 10.4 mph 17.3 mph N/A   Partly Cloudy
5:29 AM 73.4 °F - 69.8 °F 88% 30.15 in 10.0 mi NE 11.5 mph - N/A   Mostly Cloudy
5:41 AM 73.4 °F - 69.8 °F 88% 30.15 in 10.0 mi NE 10.4 mph - N/A   Mostly Cloudy
5:53 AM 73.0 °F - 70.0 °F 90% 30.15 in 10.0 mi ENE 10.4 mph 17.3 mph N/A   Mostly Cloudy
6:19 AM 73.4 °F - 69.8 °F 88% 30.15 in 10.0 mi NE 9.2 mph 18.4 mph N/A   Mostly Cloudy
6:36 AM 73.4 °F - 69.8 °F 88% 30.16 in 10.0 mi NE 11.5 mph - 0.01 in Rain Light Rain
6:53 AM 73.0 °F - 70.0 °F 90% 30.16 in 10.0 mi NNE 10.4 mph - 0.01 in   Overcast
7:53 AM 73.4 °F - 71.6 °F 94% 30.17 in 10.0 mi ENE 9.2 mph - N/A Rain Light Rain
8:05 AM 75.2 °F - 71.6 °F 89% 30.18 in 10.0 mi NE 9.2 mph - 0.00 in   Overcast
8:12 AM 73.4 °F - 71.6 °F 94% 30.18 in 10.0 mi Variable 5.8 mph - 0.00 in   Mostly Cloudy
8:31 AM 75.2 °F - 71.6 °F 89% 30.18 in 10.0 mi ENE 6.9 mph - 0.00 in   Mostly Cloudy
8:53 AM 77.0 °F - 70.0 °F 79% 30.19 in 10.0 mi East 16.1 mph 19.6 mph 0.00 in   Mostly Cloudy
9:53 AM 79.0 °F - 71.1 °F 77% 30.20 in 10.0 mi East 18.4 mph 23.0 mph N/A   Partly Cloudy
10:53 AM 79.0 °F - 70.0 °F 74% 30.21 in 10.0 mi East 18.4 mph 25.3 mph N/A   Partly Cloudy
11:53 AM 81.0 °F 84.4 °F 70.0 °F 69% 30.20 in 10.0 mi East 16.1 mph 24.2 mph N/A   Clear
12:53 PM 80.1 °F 83.2 °F 70.0 °F 71% 30.18 in 10.0 mi East 18.4 mph - N/A   Clear
1:53 PM 81.0 °F 84.4 °F 70.0 °F 69% 30.17 in 10.0 mi East 13.8 mph - N/A   Clear
2:53 PM 79.0 °F - 69.1 °F 72% 30.14 in 10.0 mi East 17.3 mph 21.9 mph N/A   Partly Cloudy
3:42 PM 78.8 °F - 69.8 °F 74% 30.15 in 10.0 mi East 18.4 mph 24.2 mph N/A   Mostly Cloudy
3:50 PM 80.6 °F 83.9 °F 69.8 °F 70% 30.15 in 10.0 mi East 18.4 mph 24.2 mph N/A   Scattered Clouds
3:53 PM 79.0 °F - 70.0 °F 74% 30.14 in 10.0 mi East 19.6 mph 24.2 mph N/A   Scattered Clouds
4:53 PM 78.1 °F - 70.0 °F 76% 30.15 in 10.0 mi East 16.1 mph - N/A   Partly Cloudy
5:53 PM 77.0 °F - 69.1 °F 76% 30.16 in 10.0 mi East 16.1 mph 24.2 mph N/A   Clear
6:53 PM 77.0 °F - 70.0 °F 79% 30.15 in 10.0 mi East 18.4 mph 26.5 mph N/A   Partly Cloudy
7:53 PM 77.0 °F - 70.0 °F 79% 30.16 in 10.0 mi East 18.4 mph 26.5 mph N/A   Partly Cloudy
8:53 PM 77.0 °F - 70.0 °F 79% 30.17 in 10.0 mi East 15.0 mph 25.3 mph N/A   Partly Cloudy
9:53 PM 77.0 °F - 71.1 °F 82% 30.19 in 10.0 mi East 15.0 mph 25.3 mph N/A   Partly Cloudy
10:53 PM 77.0 °F - 71.1 °F 82% 30.19 in 10.0 mi East 20.7 mph 27.6 mph 0.00 in   Mostly Cloudy
11:53 PM 77.0 °F - 70.0 °F 79% 30.20 in 10.0 mi East 13.8 mph 21.9 mph N/A   Mostly Cloudy